When you browse on this site, cookies collect data to enhance your experience and personalize the content and advertising you see.
Visit our Privacy Policy to learn more. By continuing to use the site, you agree to this use of cookies and data.
  • în România
  • Lista ţărilor
  • Pe 7 zile
  • Temperatura apei
  • Hartă satelitară
  • Meteo pe hartă
  • Widget-uri
  • user-avatar
    Intrare

    Meteo pe oră la Modliszow

    Astăzi, 22 Februarie, Vineri

    Timp Temperatura Precipitaţii Vânt Presiune Umiditate
    00:00 +3°C° 0.8 mm 4 m/s 724 mmHg 92%
    01:00 +3°C° 0 mm 3 m/s 725 mmHg 93%
    02:00 +3°C° 0.8 mm 3 m/s 725 mmHg 94%
    03:00 +3°C° 0.8 mm 4 m/s 725 mmHg 95%
    04:00 +3°C° 0.8 mm 4 m/s 725 mmHg 96%
    05:00 +2°C° 0.3 mm 5 m/s 726 mmHg 94%
    06:00 +1°C° 0.3 mm 6 m/s 727 mmHg 93%
    07:00 0°C° 0 mm 5 m/s 728 mmHg 90%
    08:00 -1°C° 0.1 mm 5 m/s 729 mmHg 87%
    09:00 -3°C° 0.1 mm 6 m/s 730 mmHg 84%
    10:00 -5°C° 0.1 mm 6 m/s 731 mmHg 81%
    11:00 -4°C° 0 mm 6 m/s 732 mmHg 73%
    12:00 -4°C° 0 mm 6 m/s 733 mmHg 66%
    13:00 -3°C° 0 mm 6 m/s 733 mmHg 58%
    14:00 -4°C° 0 mm 6 m/s 734 mmHg 56%
    15:00 -4°C° 0 mm 5 m/s 734 mmHg 53%
    16:00 -4°C° 0 mm 5 m/s 735 mmHg 51%
    17:00 -4°C° 0 mm 4 m/s 736 mmHg 54%
    18:00 -5°C° 0 mm 4 m/s 736 mmHg 57%
    19:00 -6°C° 0 mm 3 m/s 737 mmHg 60%
    20:00 -6°C° 0 mm 3 m/s 737 mmHg 59%
    21:00 -6°C° 0 mm 3 m/s 738 mmHg 59%
    22:00 -7°C° 0 mm 3 m/s 739 mmHg 59%
    23:00 -6°C° 0 mm 2 m/s 739 mmHg 57%

    Mâine, 23 Februarie, Sâmbătă

    Timp Temperatura Precipitaţii Vânt Presiune Umiditate
    00:00 -6°C° 0 mm 2 m/s 739 mmHg 55%
    01:00 -6°C° 0 mm 2 m/s 739 mmHg 53%
    02:00 -6°C° 0 mm 2 m/s 739 mmHg 52%
    03:00 -6°C° 0 mm 2 m/s 739 mmHg 51%
    04:00 -4°C° 0 mm 1 m/s 739 mmHg 50%
    05:00 -4°C° 0 mm 1 m/s 739 mmHg 49%
    06:00 -4°C° 0 mm 1 m/s 739 mmHg 49%
    07:00 -4°C° 0 mm 1 m/s 739 mmHg 48%
    08:00 -4°C° 0 mm 1 m/s 740 mmHg 43%
    09:00 -3°C° 0 mm 1 m/s 740 mmHg 37%
    10:00 -4°C° 0 mm 2 m/s 740 mmHg 31%
    11:00 -3°C° 0 mm 2 m/s 740 mmHg 29%
    12:00 -2°C° 0 mm 2 m/s 740 mmHg 27%
    13:00 -1°C° 0 mm 2 m/s 740 mmHg 24%
    14:00 -1°C° 0 mm 2 m/s 739 mmHg 26%
    15:00 -1°C° 0 mm 2 m/s 739 mmHg 27%
    16:00 -1°C° 0 mm 2 m/s 739 mmHg 29%
    17:00 -2°C° 0 mm 2 m/s 739 mmHg 33%
    18:00 -1°C° 0 mm 1 m/s 738 mmHg 37%
    19:00 -2°C° 0 mm 1 m/s 738 mmHg 41%
    20:00 -2°C° 0 mm 1 m/s 738 mmHg 40%
    21:00 -2°C° 0 mm 1 m/s 738 mmHg 40%
    22:00 -2°C° 0 mm 1 m/s 738 mmHg 39%
    23:00 -2°C° 0 mm 1 m/s 738 mmHg 38%

    Poimâine, 24 Februarie, Duminică

    Timp Temperatura Precipitaţii Vânt Presiune Umiditate
    00:00 -2°C° 0 mm 1 m/s 738 mmHg 36%
    01:00 -2°C° 0 mm 1 m/s 738 mmHg 35%
    02:00 -1°C° 0 mm 1 m/s 737 mmHg 34%
    03:00 -1°C° 0 mm 1 m/s 737 mmHg 33%
    04:00 0°C° 0 mm 1 m/s 737 mmHg 32%
    05:00 0°C° 0 mm 1 m/s 737 mmHg 32%
    06:00 0°C° 0 mm 1 m/s 737 mmHg 32%
    07:00 0°C° 0 mm 1 m/s 737 mmHg 32%
    08:00 +1°C° 0 mm 1 m/s 737 mmHg 29%
    09:00 +3°C° 0 mm 1 m/s 738 mmHg 27%
    10:00 +4°C° 0 mm 1 m/s 738 mmHg 25%
    11:00 +5°C° 0 mm 1 m/s 738 mmHg 26%
    12:00 +6°C° 0 mm 1 m/s 738 mmHg 27%
    13:00 +6°C° 0 mm 2 m/s 738 mmHg 28%
    14:00 +6°C° 0 mm 2 m/s 737 mmHg 35%
    15:00 +5°C° 0 mm 2 m/s 737 mmHg 41%
    16:00 +6°C° 0 mm 1 m/s 737 mmHg 48%
    17:00 +5°C° 0 mm 1 m/s 737 mmHg 50%
    18:00 +3°C° 0 mm 1 m/s 737 mmHg 53%
    19:00 +2°C° 0 mm 1 m/s 737 mmHg 55%
    20:00 +2°C° 0 mm 1 m/s 737 mmHg 55%
    21:00 +2°C° 0 mm 1 m/s 737 mmHg 55%
    22:00 +1°C° 0 mm 2 m/s 737 mmHg 55%
    23:00 +1°C° 0 mm 2 m/s 737 mmHg 56%

    25 Februarie, Luni

    Timp Temperatura Precipitaţii Vânt Presiune Umiditate
    00:00 +2°C° 0 mm 1 m/s 737 mmHg 56%
    01:00 +2°C° 0 mm 1 m/s 737 mmHg 56%
    02:00 +1°C° 0 mm 2 m/s 737 mmHg 57%
    03:00 +1°C° 0 mm 2 m/s 737 mmHg 58%
    04:00 +1°C° 0 mm 2 m/s 737 mmHg 58%
    05:00 +1°C° 0 mm 2 m/s 737 mmHg 59%
    06:00 -1°C° 0 mm 2 m/s 737 mmHg 59%
    07:00 -1°C° 0 mm 2 m/s 737 mmHg 60%
    08:00 +2°C° 0 mm 2 m/s 737 mmHg 57%
    09:00 +3°C° 0 mm 2 m/s 738 mmHg 53%
    10:00 +4°C° 0 mm 3 m/s 738 mmHg 50%
    11:00 +5°C° 0 mm 3 m/s 738 mmHg 50%
    12:00 +7°C° 0 mm 3 m/s 738 mmHg 50%
    13:00 +8°C° 0 mm 2 m/s 737 mmHg 51%
    14:00 +8°C° 0 mm 2 m/s 737 mmHg 54%
    15:00 +7°C° 0 mm 2 m/s 737 mmHg 58%
    16:00 +7°C° 0 mm 2 m/s 737 mmHg 62%
    17:00 +6°C° 0 mm 2 m/s 737 mmHg 65%
    18:00 +5°C° 0 mm 1 m/s 736 mmHg 69%
    19:00 +4°C° 0 mm 1 m/s 736 mmHg 73%
    20:00 +4°C° 0 mm 1 m/s 736 mmHg 72%
    21:00 +3°C° 0 mm 2 m/s 736 mmHg 71%
    22:00 +2°C° 0 mm 2 m/s 736 mmHg 70%
    23:00 +2°C° 0 mm 2 m/s 736 mmHg 67%

    26 Februarie, Marţi

    Timp Temperatura Precipitaţii Vânt Presiune Umiditate
    00:00 +2°C° 0 mm 2 m/s 735 mmHg 65%
    01:00 +3°C° 0 mm 2 m/s 735 mmHg 62%
    02:00 +2°C° 0 mm 2 m/s 734 mmHg 63%
    03:00 +2°C° 0 mm 2 m/s 734 mmHg 63%
    04:00 +2°C° 0 mm 2 m/s 734 mmHg 64%
    05:00 +2°C° 0 mm 2 m/s 733 mmHg 66%
    06:00 +1°C° 0 mm 3 m/s 733 mmHg 69%
    07:00 +1°C° 0 mm 3 m/s 733 mmHg 71%
    08:00 +3°C° 0 mm 4 m/s 733 mmHg 67%
    09:00 +5°C° 0 mm 4 m/s 733 mmHg 62%
    10:00 +7°C° 0 mm 5 m/s 733 mmHg 57%
    11:00 +8°C° 0 mm 5 m/s 733 mmHg 52%
    12:00 +9°C° 0 mm 6 m/s 732 mmHg 46%
    13:00 +10°C° 0 mm 6 m/s 732 mmHg 40%
    14:00 +9°C° 0 mm 6 m/s 732 mmHg 46%
    15:00 +8°C° 0 mm 5 m/s 732 mmHg 51%
    16:00 +8°C° 0 mm 5 m/s 731 mmHg 57%
    17:00 +7°C° 0 mm 4 m/s 731 mmHg 61%
    18:00 +6°C° 0 mm 4 m/s 732 mmHg 66%
    19:00 +5°C° 0 mm 3 m/s 732 mmHg 70%
    20:00 +4°C° 0 mm 3 m/s 732 mmHg 75%
    21:00 +4°C° 0 mm 3 m/s 732 mmHg 79%
    22:00 +4°C° 0 mm 2 m/s 732 mmHg 84%
    23:00 +3°C° 0 mm 2 m/s 732 mmHg 87%

    27 Februarie, Miercuri

    Timp Temperatura Precipitaţii Vânt Presiune Umiditate
    00:00 +3°C° 0 mm 2 m/s 731 mmHg 89%
    01:00 +2°C° 0 mm 2 m/s 731 mmHg 92%
    02:00 +2°C° 0 mm 2 m/s 731 mmHg 92%
    03:00 +2°C° 0 mm 2 m/s 731 mmHg 92%
    04:00 +1°C° 0 mm 2 m/s 731 mmHg 92%
    05:00 +2°C° 0 mm 1 m/s 731 mmHg 92%
    06:00 +2°C° 0 mm 1 m/s 731 mmHg 91%
    07:00 +2°C° 0 mm 1 m/s 731 mmHg 91%
    08:00 +4°C° 0 mm 1 m/s 731 mmHg 83%
    09:00 +5°C° 0 mm 1 m/s 731 mmHg 75%
    10:00 +7°C° 0 mm 1 m/s 731 mmHg 68%
    11:00 +8°C° 0 mm 1 m/s 730 mmHg 60%
    12:00 +10°C° 0 mm 1 m/s 730 mmHg 53%
    13:00 +11°C° 0 mm 1 m/s 730 mmHg 45%
    14:00 +11°C° 0 mm 1 m/s 729 mmHg 48%
    15:00 +11°C° 0 mm 1 m/s 729 mmHg 51%
    16:00 +11°C° 0 mm 1 m/s 728 mmHg 54%
    17:00 +10°C° 0 mm 1 m/s 728 mmHg 62%
    18:00 +9°C° 0 mm 1 m/s 727 mmHg 70%
    19:00 +7°C° 0 mm 1 m/s 727 mmHg 78%
    20:00 +6°C° 0 mm 2 m/s 726 mmHg 80%
    21:00 +5°C° 0 mm 2 m/s 726 mmHg 83%
    22:00 +5°C° 0 mm 2 m/s 725 mmHg 85%
    23:00 +5°C° 0 mm 2 m/s 725 mmHg 84%
    Arată mai mult